CAPE
0 0 0 0 0 0 0 0 0 0 0 0 0 0 0 1 0 26 100 66 760 365 335 58 305 827 714 802 812 1341 1182 1291 1212 1026 952 880 988 842 488 78 3 1 0 0 6 31 34 11 3 35 36 32 64 87 324 478 587 638 687 797 965 864 877 1278 1405 1008 901 1159 1191 1634 1597 1678 2029 2276 2131 1828 1844 2104 2302 2310 2528 2848 3017 3492 3951 3490
0 0 0 0 0 0 0 0 0 0 0 2 0 0 0 0 8 450 357 42 931 1050 11 12 242 564 449 666 635 830 876 737 662 761 1056 961 816 882 734 188 30 25 0 0 0 23 13 31 10 59 36 158 98 193 496 594 763 816 699 865 1047 960 1155 1158 1077 1006 992 1167 1006 1392 1478 1341 1513 2297 1515 1975 1732 1472 1759 3124 2893 3252 3108 3908 3888 3545
0 0 0 0 0 0 0 0 0 0 0 0 1 0 0 3 1 0 0 0 126 36 10 26 1 84 536 404 0 239 855 768 973 890 559 1211 1143 1149 877 271 162 14 4 0 2 28 3 75 48 142 46 133 178 285 518 750 782 780 730 1046 1269 1037 1214 1250 985 1112 1095 1056 1032 962 1187 1036 1250 1561 1477 1943 1819 1833 1936 2668 3252 3405 4069 3906 3570 3606
0 0 0 0 0 0 0 0 0 0 0 0 0 0 3 1 0 0 0 0 17 125 73 2 7 177 190 7 1 0 298 571 428 1277 1774 995 1284 1354 1160 830 270 35 34 14 4 11 5 96 55 176 64 106 272 300 454 597 881 887 1021 1226 1341 1248 1225 1174 1126 1302 1294 990 1190 1088 1328 1092 1206 1330 1971 2208 2315 2500 2282 2656 2935 3939 4102 3464 3102 3271
0 0 0 0 0 0 0 0 0 0 0 0 0 0 0 0 0 0 0 0 0 146 8 147 168 674 0 0 0 0 0 417 528 828 720 953 930 985 630 1320 724 234 102 42 5 22 8 109 93 212 185 121 160 214 359 468 588 565 1002 1304 1582 1476 1239 1444 1629 1562 1568 1576 1873 1599 1541 1613 2123 1564 1991 2436 2534 2452 2581 2705 2476 3072 3540 3556 3086 3300
0 0 0 0 0 0 0 0 0 0 0 0 0 0 0 0 0 0 0 0 0 5 0 0 16 228 352 0 0 13 1 315 660 536 1254 1810 1395 609 1066 1193 1196 717 154 149 30 23 11 128 175 297 216 103 152 181 294 313 446 599 1046 1686 1783 1545 1437 1388 1974 1770 1822 2192 1974 1974 2000 1868 2000 2058 1815 1950 2216 2016 1612 2055 2316 2412 2787 2865 3275 3250
0 0 0 5 0 0 0 0 0 0 1 0 0 0 2 2 5 0 0 0 0 6 14 0 73 111 27 47 375 949 470 354 1078 1002 1415 1655 1957 1337 1346 1152 976 1036 576 228 141 33 8 117 228 364 451 144 188 266 260 210 285 595 1132 1891 2033 1747 1525 1517 2220 2050 2224 2519 2146 1853 1508 1341 1562 1657 1451 2224 1928 1975 1867 2007 2282 2496 2892 2727 2871 2866
0 0 0 2 0 0 0 0 0 0 0 0 0 0 4 6 2 6 0 0 0 10 0 0 13 25 32 392 631 1544 920 498 718 1106 841 1938 1744 1608 1497 1470 1188 985 1025 435 284 95 77 152 242 380 461 251 182 264 272 251 346 754 1470 1919 1962 1846 1673 1589 2322 2210 2399 2470 2002 1792 1297 990 1160 1152 1452 2083 2012 2230 2104 2499 2505 2344 2754 2805 3110 2492
0 1 0 0 0 0 0 0 0 0 0 0 2 0 0 0 0 0 0 0 0 3 1 0 2 22 0 342 614 1072 946 788 840 499 798 1430 1358 1643 1909 1536 1159 939 1346 914 407 344 55 146 186 483 482 259 62 221 325 389 408 875 1397 2118 2174 2008 1900 1786 2555 2594 2315 2352 2041 1944 1477 1387 1082 975 1347 1778 1944 2565 2671 2844 2972 2874 2872 2775 3406 2962
0 7 0 0 0 0 0 0 0 0 0 0 0 0 0 2 0 0 0 0 1 12 6 6 0 0 11 200 399 814 880 948 632 820 906 1214 1242 1380 1490 1508 1583 1190 1099 1241 843 496 305 289 298 438 397 89 44 113 418 425 475 957 1611 2348 2531 2209 2395 2118 2838 2796 2475 2240 2075 2132 1712 1821 1476 1289 1213 1429 1852 2217 2541 2892 3821 3980 3623 2914 2630 3071
0 0 0 0 0 0 0 0 0 0 0 0 0 0 0 0 0 0 0 10 2 4 0 1 0 0 115 242 187 642 106 211 547 801 990 861 1440 1784 1734 1648 1127 1213 1014 1305 956 785 509 554 472 453 352 179 69 97 261 329 413 886 1602 2299 2832 2644 2518 2470 3026 2776 2754 1986 2059 2169 2026 2007 1950 1763 1618 1814 1956 2376 2631 2713 3361 3780 3506 3283 2777 2721
0 0 0 0 0 0 0 0 0 0 0 0 0 0 0 0 0 0 0 0 0 0 0 0 0 0 20 22 141 82 107 103 112 164 267 1248 920 1290 1508 1640 1556 1153 1214 1250 949 863 1028 825 624 512 412 253 128 78 251 296 424 828 1455 2272 2910 2753 2590 2594 3086 2862 2611 1741 2039 2200 2176 2194 2154 2103 1819 1918 2277 2145 2662 2487 2882 3419 3388 3480 3155 3315
0 0 0 0 0 0 0 0 0 0 0 0 0 0 0 0 0 0 0 1 2 0 0 0 0 13 130 176 187 88 95 90 103 138 130 331 266 862 1577 2081 1882 1753 1809 1552 1704 1500 1180 1072 968 595 580 675 391 256 413 353 449 728 1536 2416 2991 2900 2589 2854 3053 3034 2571 2010 1863 1969 2023 2292 2384 2284 2036 2074 1926 1924 2316 2591 2689 3558 3724 3192 3622 3260
0 0 0 0 0 0 0 0 0 0 0 0 0 0 0 0 0 0 0 0 0 0 0 0 2 106 208 151 148 134 75 111 131 136 152 145 435 605 1329 1730 2232 1606 1642 1631 1452 1186 1426 1256 1289 827 734 723 742 503 539 553 591 882 1394 2416 3038 3080 3109 3130 3139 3045 2700 2503 2105 1913 2056 2250 2367 2568 2315 1959 1771 1478 1777 2159 2704 2988 2978 3340 3125 3155
0 0 0 0 0 0 0 0 0 0 0 0 0 0 0 1 0 0 0 0 0 0 0 3 0 239 73 183 53 100 104 94 60 116 136 261 364 480 704 1591 1671 1669 1729 1616 1459 1408 1337 1498 1360 1565 1428 1410 995 662 446 443 856 1086 1539 2704 3187 3375 3471 3428 3255 3191 2617 2497 2155 2164 2015 2060 2188 2352 2175 1919 1316 1211 1360 1439 2066 2563 2688 2828 2979 2941
0 0 0 0 0 0 0 0 0 0 0 0 0 0 0 0 0 0 0 0 0 0 2 9 245 77 74 89 96 86 40 89 129 110 116 215 269 126 438 1082 953 1601 1786 1290 1632 1809 1680 1668 1350 1127 1650 1593 1564 1355 969 915 953 1056 1765 2760 3274 3296 3459 3378 3441 3286 2937 2496 2274 2618 2315 2172 2127 2264 2021 2055 1724 1515 1376 1409 1386 2153 2704 2626 2778 2479
0 0 0 0 0 0 0 0 0 0 0 0 0 0 0 0 0 0 0 0 0 0 2 2 73 214 58 157 89 99 52 10 64 76 110 92 97 116 225 280 878 1207 1350 1370 1450 1470 1693 1452 1574 1480 1202 1567 1646 1362 1451 1490 841 1378 1951 2731 3489 3531 3456 3396 3773 3345 3167 2835 2500 2520 2518 2251 2107 2091 1963 1561 1864 1150 1397 1444 1543 1532 2003 2548 2712 2814
4 0 0 0 0 0 0 0 0 0 0 0 0 0 0 0 0 4 9 4 0 0 13 37 171 175 178 308 172 101 15 4 18 68 78 96 79 170 345 298 429 497 700 935 1419 1580 1379 1522 1558 1097 1214 1235 1129 1661 1391 1683 1488 1386 2158 2654 3602 3466 3240 3573 3717 3281 3420 3266 2798 2672 2768 2530 2137 1941 1743 1104 1246 1312 1131 1361 1647 1287 1491 1677 2236 2482
1 0 0 0 0 0 0 0 0 0 0 0 1 0 0 0 0 0 0 19 0 2 9 86 108 137 232 160 143 93 8 16 5 15 77 60 78 112 218 278 437 555 587 554 988 1662 1592 1463 1700 1822 1701 1324 1329 1280 1346 1409 1779 1613 2289 2728 2815 2483 3267 3308 2858 2901 2931 3210 2893 2903 2977 2605 2127 1769 1680 1143 1016 1235 1040 988 1364 1203 1016 1424 1650 1873
0 0 0 0 0 0 0 0 0 0 0 0 0 0 0 0 0 0 3 0 0 6 19 58 117 32 315 208 171 73 51 23 18 11 3 45 64 94 176 170 258 413 474 431 656 910 1102 1534 1594 1846 1729 1097 849 1504 1355 1208 1368 1872 2021 2258 1987 1903 2470 2825 2430 2642 3013 3113 2554 2303 3074 3011 2563 1960 1518 1393 1313 1114 1168 1156 882 1085 799 1098 1024 1494
0 0 0 0 0 0 0 0 0 0 0 0 0 0 0 0 0 0 2 4 0 25 10 0 72 44 78 8 16 11 28 41 24 20 3 2 69 52 137 157 198 256 392 462 535 815 1332 1662 1323 1782 1727 1680 1652 1657 1389 1237 1543 1391 1590 1525 2108 2279 2503 2526 2018 2491 3374 2944 2896 2578 3141 3176 3078 2125 1376 1278 1181 1320 1219 1412 1177 812 660 889 895 924
0 0 0 0 0 0 0 0 0 0 0 0 0 0 0 0 0 2 32 0 2 11 11 56 10 86 14 18 25 7 46 42 13 21 6 58 1 7 118 109 125 199 272 332 406 554 1070 1434 1478 1525 2063 2148 2098 2316 1736 1922 867 1802 1783 1670 1869 2087 1452 2045 1695 2105 3157 3029 3006 2655 3144 2863 3164 2607 1741 1026 1098 1272 1254 1440 1626 1256 764 567 1008 849
0 0 1 0 0 0 0 0 0 0 0 0 0 0 3 0 0 3 1 3 0 0 48 162 181 17 1 14 8 28 10 40 49 5 8 40 55 56 42 65 132 281 306 437 441 568 766 1042 1312 1540 1933 2019 1970 1949 1837 1698 1070 1468 1460 1686 2121 1942 1814 1549 1815 1981 2964 3139 3094 3169 3079 2883 2903 2873 2136 1133 652 743 758 1358 1700 1618 1123 651 596 1074
0 0 0 0 0 0 0 0 0 0 0 0 0 0 0 0 0 10 27 14 24 11 0 20 58 5 0 0 35 15 6 8 26 16 36 41 36 28 33 46 126 215 384 498 554 554 827 965 1093 1003 1602 1524 1470 1490 1441 1229 1409 1110 1337 1175 1390 2395 1813 1619 2186 2269 2990 3320 3256 3198 3009 3114 2344 2104 1998 1184 538 365 449 591 1041 1560 1457 1155 472 558
0 0 0 0 0 0 0 0 0 0 0 0 0 0 0 0 0 0 0 0 3 8 4 9 180 85 4 5 6 3 2 5 3 6 18 27 22 11 14 63 119 125 240 457 588 551 625 746 863 1054 958 1358 1218 1744 1905 1849 1836 1839 1915 1481 1430 1458 1242 1644 1702 1917 2774 3195 3150 3043 3019 2725 2223 1756 1764 1306 552 262 248 231 262 647 1166 1124 552 186
0 0 0 0 0 0 0 0 0 0 0 0 0 0 0 0 0 0 0 1 0 4 1 6 82 11 6 44 16 3 2 6 5 6 5 20 4 11 0 9 110 114 134 312 572 628 697 711 790 770 754 832 980 1588 1769 1734 1681 1671 1946 1951 2012 1624 1181 1249 2028 2185 1620 2980 2996 3092 2911 2742 2187 1621 1580 1358 755 299 164 148 125 93 618 973 838 320
0 0 0 0 0 2 44 9 0 0 0 0 0 0 0 0 0 0 0 0 0 0 8 246 100 2 11 5 16 4 9 3 6 4 6 4 14 11 1 0 60 131 170 210 301 464 592 653 746 775 740 671 738 717 790 754 964 1348 1356 1941 2110 1528 1081 1411 1115 1897 1922 2127 2857 3059 2698 2736 2477 1839 1356 1428 1159 646 297 92 28 27 89 518 740 582
0 0 0 0 0 0 0 0 0 0 0 0 0 0 0 0 0 0 0 6 130 0 3 156 211 56 39 28 3 14 7 5 4 9 6 5 1 1 1 0 0 43 120 154 210 379 463 629 658 664 718 730 682 629 618 656 714 764 1289 1551 1503 1344 1247 1187 1505 1159 1750 2192 2350 2831 2772 2652 2563 2366 1857 1471 1843 1346 685 204 75 59 38 116 440 551
0 0 0 0 0 0 0 0 0 0 0 0 0 0 0 0 0 0 0 0 18 16 124 177 207 63 16 16 22 10 11 8 2 6 8 1 2 4 7 0 0 0 0 0 12 126 276 453 566 656 624 661 694 704 680 665 593 612 637 1357 1671 1771 1924 1901 1579 1351 1423 1782 2431 2633 2844 2976 2734 2629 2510 2068 1861 2004 1285 723 433 391 262 130 181 335
0 0 0 0 0 0 0 0 0 0 0 0 0 0 0 0 0 0 0 0 3 212 264 108 96 81 1 3 10 5 2 8 8 0 4 8 2 6 1 0 0 0 0 0 0 0 122 129 204 452 482 608 630 648 709 744 662 624 530 628 1129 1555 1588 1726 1998 1436 1624 1646 2099 2176 2491 3007 2982 2816 2798 2598 2358 2642 2444 1552 755 392 395 380 308 374
0 0 0 0 0 0 0 0 0 0 0 0 0 0 0 0 0 0 0 0 0 2 111 121 55 78 1 6 3 4 9 5 12 2 1 7 0 0 2 0 0 0 0 0 0 0 0 43 124 172 302 194 396 531 594 668 720 765 685 608 995 1301 1622 1369 1408 666 854 1579 1816 2112 2235 2583 2928 2965 3178 3264 2799 2895 3048 2664 1786 1180 1647 1185 888 1161
0 0 0 0 0 0 0 0 0 0 0 0 0 0 0 0 0 0 0 0 0 1 28 84 112 80 4 5 6 11 12 15 17 11 15 5 6 5 6 0 0 0 0 0 0 0 0 0 0 21 94 205 240 214 303 411 490 578 662 642 591 1019 1108 1373 1652 1270 1654 1475 1781 2008 2290 2375 2328 3016 3239 3307 3443 3306 3232 3021 2780 2366 2011 1236 1072 2014
0 0 0 0 0 0 0 0 0 0 0 0 0 0 0 0 0 0 0 0 5 1 15 31 75 93 0 10 6 6 13 14 14 8 6 11 9 8 4 4 1 2 0 0 0 0 0 0 0 0 0 0 75 148 240 251 217 224 322 484 553 510 485 1122 1448 1246 1117 1450 2001 2013 1993 2212 2147 2546 3007 3233 3442 3460 3357 3306 3106 2708 2112 1588 1500 1348
0 0 0 0 0 0 0 0 0 0 0 0 0 0 0 0 0 0 0 0 16 1 4 80 48 19 0 1 2 5 23 9 13 7 7 6 11 11 4 2 0 0 0 0 0 0 0 0 0 0 0 0 0 0 0 123 156 218 241 280 316 378 482 538 638 1330 1272 1540 1743 2117 1997 1855 2135 2081 2719 3165 3347 3254 3258 3279 3218 2766 2149 1919 1888 1976
0 0 0 0 0 0 0 0 0 0 1 1 0 0 0 0 0 0 0 0 0 8 26 32 25 4 5 3 2 0 0 5 3 16 9 0 5 5 5 3 0 0 0 0 0 0 0 0 0 0 0 0 0 0 0 0 0 97 194 242 208 338 364 492 480 569 870 1179 1361 1513 1624 2224 2111 2217 2563 2613 2887 2844 2905 3321 3122 2978 2365 1867 1886 2099
0 0 0 0 0 0 0 0 0 0 0 0 0 0 0 0 0 0 0 0 0 0 12 7 1 5 5 2 2 2 1 1 5 5 6 7 1 4 0 0 0 0 0 0 0 0 0 0 0 0 0 0 0 0 0 0 0 0 17 94 24 135 207 270 370 534 672 667 641 1296 1683 2162 2482 2147 2161 2416 2875 2639 2394 2668 2903 2958 2727 2274 1493 1470
0 4 2 0 0 0 0 0 0 3 0 0 0 0 0 0 0 0 0 0 0 0 0 0 0 2 0 0 0 0 1 0 1 20 5 11 1 0 0 0 0 0 0 0 0 0 0 0 0 0 0 0 0 0 0 0 0 0 0 0 8 111 160 200 218 287 379 546 599 648 682 712 1148 1874 2700 2554 2214 2377 2462 2394 2528 2657 2770 2590 2012 1540
0 12 46 22 41 0 0 0 0 0 0 0 0 0 0 0 0 0 0 1 0 0 0 0 0 0 0 0 0 0 0 0 0 0 6 0 0 0 0 0 0 0 0 0 0 0 0 0 0 0 0 0 0 0 0 0 0 0 0 0 0 21 74 107 114 173 228 355 546 687 754 675 696 1372 1683 2246 2180 2028 2151 2441 1744 1738 2332 2718 2487 1997
0 0 54 0 14 0 0 0 0 0 4 2 0 0 0 0 0 0 0 0 0 0 0 0 0 0 0 0 0 0 0 0 0 2 0 0 0 0 0 0 0 0 0 0 0 0 0 0 0 0 0 0 0 0 0 0 0 0 0 0 0 12 15 7 28 38 110 174 318 502 682 816 803 1145 1319 1514 1725 1700 1350 1283 1253 1661 2556 1932 1794 2263
0 0 0 0 0 7 0 0 0 0 56 33 0 0 0 0 0 0 0 0 0 0 0 0 0 0 0 0 0 0 0 0 1 0 0 0 0 0 0 0 0 0 0 0 0 0 0 0 0 0 0 0 0 0 0 0 0 0 0 0 0 3 7 4 7 4 0 33 116 285 483 666 768 873 980 1357 1420 1568 1238 1366 1203 1142 1301 1258 1430 1634
0 0 0 0 0 0 0 0 0 42 55 28 0 0 0 0 0 0 0 50 5 0 0 0 0 0 0 0 0 0 0 0 0 0 0 0 0 0 0 0 0 0 0 0 0 0 0 0 0 0 0 0 0 0 0 0 0 0 0 0 0 0 0 0 0 5 5 0 32 180 329 462 542 624 720 825 1193 1734 1435 1345 1598 1513 1171 1292 1385 1707
2 0 0 0 0 0 0 0 0 0 50 2 0 0 0 0 0 4 113 10 6 0 0 0 0 0 0 0 0 0 0 0 0 0 0 0 0 0 0 0 0 0 0 0 0 0 0 0 0 0 0 0 0 0 0 0 0 0 0 0 0 1 0 0 0 0 0 0 0 6 117 360 506 488 368 518 1163 1626 1599 1546 1569 1678 1661 1844 1828 2045
64 25 29 21 1 0 1 44 10 0 92 11 0 0 0 0 32 98 33 14 0 0 0 0 0 0 0 0 0 0 0 0 0 0 0 0 0 0 0 0 0 0 0 0 0 0 0 0 0 0 0 0 0 0 0 0 0 0 0 0 0 0 0 0 0 0 0 0 3 4 12 50 139 390 462 572 1067 1429 1778 1973 1954 1727 1635 1679 1972 2132
25 39 31 18 23 16 4 2 3 21 106 60 6 31 1 0 33 65 1 0 0 0 0 0 0 0 0 0 0 0 0 0 0 0 0 0 0 0 0 0 0 0 0 0 0 0 0 0 0 0 0 0 0 0 0 0 0 0 0 0 0 0 0 0 0 0 0 0 0 0 7 18 45 52 254 445 983 1364 1488 1815 2095 1829 1820 1808 1682 1643
54 70 461 263 202 14 14 139 64 99 149 87 1 77 76 71 60 50 0 0 0 0 0 0 0 0 0 0 0 0 0 0 0 0 0 0 0 0 0 0 0 0 0 0 0 0 0 0 0 0 0 0 0 0 0 0 0 0 0 0 0 2 0 0 0 2 0 0 0 0 0 0 28 72 197 402 455 813 1332 1581 1850 2031 2132 2182 2104 1947
134 110 443 314 46 69 81 96 395 233 93 41 0 19 84 101 121 13 0 0 0 0 0 0 0 0 0 0 0 0 0 0 0 0 0 0 0 0 0 0 0 0 0 0 0 0 0 0 0 0 0 0 0 0 0 0 0 0 0 0 2 0 1 0 1 1 2 0 0 0 0 0 6 36 75 67 137 416 812 1231 1469 1694 1825 2182 2057 2114
2 54 75 0 2 0 10 74 70 182 107 41 7 3 1 31 125 7 0 0 0 0 0 0 0 0 0 0 0 0 0 0 0 0 0 0 0 0 0 0 0 0 0 0 0 0 0 0 0 0 0 0 0 0 0 0 0 0 0 0 0 1 2 4 3 0 1 2 0 0 0 0 0 2 9 70 112 157 378 949 1174 1179 1578 1674 1644 1756
199 66 48 29 0 0 29 79 109 81 67 67 2 1 11 0 10 4 0 0 0 0 0 0 0 0 0 0 0 0 0 0 0 0 0 0 0 0 0 0 0 0 0 0 0 0 1 0 0 0 0 0 0 0 0 0 0 0 0 0 0 0 1 0 0 1 0 0 1 0 0 0 0 0 0 2 45 60 82 251 451 566 1049 1304 1420 1092
94 7 166 166 56 23 1 19 66 188 129 71 46 1 6 35 36 35 4 0 0 0 0 0 0 0 0 0 0 0 0 0 0 0 0 0 0 0 0 0 0 0 0 0 0 0 1 1 0 0 0 0 0 0 0 0 1 0 0 0 0 0 2 3 0 1 4 0 0 0 0 0 0 0 0 0 0 18 45 42 28 67 286 532 565 660
193 161 144 91 130 175 232 290 259 147 303 118 36 28 1 1 3 0 13 14 0 0 0 0 0 0 0 0 0 0 0 0 0 0 0 0 0 0 0 0 0 0 0 0 0 0 0 0 1 1 0 0 0 5 6 5 2 0 0 0 0 0 3 1 0 0 2 2 0 0 0 0 0 0 0 0 1 3 2 1 0 34 4 123 454 540
434 556 335 284 242 298 199 236 304 282 161 76 187 170 90 28 2 8 43 19 9 5 3 0 0 0 0 0 0 0 0 0 0 0 0 0 0 0 1 3 3 3 2 2 0 0 1 2 7 4 2 3 2 1 2 4 5 3 0 0 1 0 3 4 0 0 3 3 1 0 0 0 0 0 0 0 1 6 5 3 0 0 0 0 0 190
Wind_Speed
nan nan nan nan nan nan nan nan nan nan nan nan nan nan nan nan nan nan 12 nan 19 12 8 nan 15 16 15 14 25 16 17 14 19 17 11 12 12 10 10 nan nan nan nan nan nan nan nan nan nan nan nan nan nan nan 7 4 5 6 6 7 5 5 6 4 2 2 1 1 3 3 3 3 3 7 4 6 1 6 6 4 6 6 7 5 7 8
nan nan nan nan nan nan nan nan nan nan nan nan nan nan nan nan nan 15 8 nan 16 1 nan nan 12 14 15 18 24 18 14 13 10 12 10 10 11 10 11 11 nan nan nan nan nan nan nan nan nan nan nan 5 nan 6 6 4 5 6 5 6 5 5 5 3 2 2 1 2 3 4 4 3 3 5 6 4 6 4 7 3 6 7 4 5 7 8
nan nan nan nan nan nan nan nan nan nan nan nan nan nan nan nan nan nan nan nan 17 nan nan nan nan nan 13 16 nan 23 21 14 11 6 7 10 11 12 11 11 11 nan nan nan nan nan nan nan nan 7 nan 5 5 5 5 4 5 5 6 6 6 4 4 2 3 2 3 3 4 5 5 5 4 4 5 5 6 6 4 4 5 5 4 5 5 7
nan nan nan nan nan nan nan nan nan nan nan nan nan nan nan nan nan nan nan nan nan 11 nan nan nan 15 17 nan nan nan 24 25 24 20 17 11 13 13 12 12 11 nan nan nan nan nan nan nan nan 8 nan 5 5 5 6 5 5 6 7 6 5 5 3 3 3 2 4 5 5 6 6 7 6 4 5 5 6 8 4 5 6 5 5 6 5 6
nan nan nan nan nan nan nan nan nan nan nan nan nan nan nan nan nan nan nan nan nan 12 nan 15 21 14 nan nan nan nan nan 24 28 20 13 19 16 16 13 13 12 10 9 nan nan nan nan 7 nan 7 6 5 6 5 6 5 6 7 6 6 5 6 3 3 4 3 6 8 6 9 8 8 9 6 5 5 5 6 7 7 5 5 5 7 5 6
nan nan nan nan nan nan nan nan nan nan nan nan nan nan nan nan nan nan nan nan nan nan nan nan nan 12 9 nan nan nan nan 23 24 32 27 20 18 17 12 11 13 12 10 9 nan nan nan 7 9 8 6 5 6 6 7 5 6 6 7 7 5 6 3 3 5 5 7 7 7 6 6 5 4 4 4 5 4 4 5 7 4 3 5 5 4 6
nan nan nan nan nan nan nan nan nan nan nan nan nan nan nan nan nan nan nan nan nan nan nan nan nan 13 nan nan 16 23 28 25 26 24 24 20 22 11 14 13 10 11 10 10 7 nan nan 7 8 8 6 6 7 7 7 6 7 7 7 7 5 5 5 5 7 6 7 7 6 4 4 4 4 4 5 6 6 5 6 5 3 4 4 4 5 4
nan nan nan nan nan nan nan nan nan nan nan nan nan nan nan nan nan nan nan nan nan nan nan nan nan nan nan 15 23 28 37 36 28 29 24 22 18 15 13 14 13 8 12 10 8 nan nan 7 7 7 7 7 8 8 7 6 8 7 7 6 5 5 5 7 8 6 7 7 6 4 4 5 5 4 5 6 6 7 7 5 4 3 3 4 4 3
nan nan nan nan nan nan nan nan nan nan nan nan nan nan nan nan nan nan nan nan nan nan nan nan nan nan nan 14 18 25 34 31 26 28 22 21 19 17 16 15 17 12 12 11 10 8 nan 7 7 8 8 7 nan 8 7 7 8 7 7 6 4 5 6 7 9 7 6 6 6 5 5 6 6 6 6 6 7 7 6 5 4 3 2 3 3 3
nan nan nan nan nan nan nan nan nan nan nan nan nan nan nan nan nan nan nan nan nan nan nan nan nan nan nan 13 18 24 31 32 29 22 17 18 18 18 17 20 19 15 11 10 10 10 8 8 8 9 10 nan nan 8 8 7 7 6 6 5 4 5 7 8 8 7 6 5 6 6 6 6 7 8 7 6 7 7 7 5 4 4 3 2 2 1
nan nan nan nan nan nan nan nan nan nan nan nan nan nan nan nan nan nan nan nan nan nan nan nan nan nan 20 15 14 18 23 27 23 19 17 21 22 22 20 20 18 9 9 12 13 12 11 10 10 10 9 9 nan nan 8 6 6 6 5 5 4 5 7 8 7 6 6 4 5 6 6 6 7 6 6 7 6 6 6 4 3 2 2 2 1 1
nan nan nan nan nan nan nan nan nan nan nan nan nan nan nan nan nan nan nan nan nan nan nan nan nan nan nan nan 15 nan 20 26 28 26 23 17 9 14 11 11 12 13 11 15 12 11 13 12 11 10 8 8 7 nan 7 6 6 6 6 5 5 5 6 7 6 5 5 5 4 5 6 7 7 6 6 5 5 4 4 4 3 3 1 1 1 1
nan nan nan nan nan nan nan nan nan nan nan nan nan nan nan nan nan nan nan nan nan nan nan nan nan nan 33 30 24 nan nan nan 27 28 22 21 19 18 18 17 16 16 15 12 17 14 12 11 11 10 9 8 7 7 7 6 6 7 7 6 6 6 6 6 6 5 5 4 4 6 7 8 8 6 6 5 5 4 4 4 3 2 1 1 2 1
nan nan nan nan nan nan nan nan nan nan nan nan nan nan nan nan nan nan nan nan nan nan nan nan nan 28 30 31 28 26 nan 29 26 26 24 22 23 21 16 18 16 16 18 16 19 18 17 12 10 12 12 10 9 7 8 8 8 8 8 6 6 7 7 7 6 5 4 4 5 6 8 9 9 7 6 6 5 4 5 4 3 1 1 1 1 3
nan nan nan nan nan nan nan nan nan nan nan nan nan nan nan nan nan nan nan nan nan nan nan nan nan 24 nan 32 nan nan 26 nan nan 26 26 24 23 24 26 26 22 20 18 19 16 13 13 9 10 13 13 12 11 8 8 9 10 11 9 9 7 8 9 8 7 7 5 5 5 8 9 10 9 8 7 7 7 6 5 4 2 2 2 1 2 3
nan nan nan nan nan nan nan nan nan nan nan nan nan nan nan nan nan nan nan nan nan nan nan nan 23 nan nan nan nan nan nan nan 31 30 30 29 28 27 24 27 17 12 12 17 19 17 15 16 15 12 13 13 12 10 10 10 11 11 11 10 9 9 9 9 8 8 7 6 7 8 9 9 9 9 8 9 8 8 6 4 4 3 3 3 4 3
nan nan nan nan nan nan nan nan nan nan nan nan nan nan nan nan nan nan nan nan nan nan nan nan nan 39 nan 31 nan nan nan nan nan nan 33 nan nan 29 28 29 26 13 9 13 17 20 20 16 14 12 8 14 12 12 11 12 12 12 13 13 11 10 10 10 9 9 8 7 8 8 9 10 9 8 7 8 6 5 6 6 4 4 3 4 5 5
nan nan nan nan nan nan nan nan nan nan nan nan nan nan nan nan nan nan nan nan nan nan nan nan 39 34 32 37 35 37 nan nan nan nan nan nan nan 33 31 29 26 21 16 18 17 14 12 15 15 16 13 12 9 12 12 12 14 14 14 13 12 12 11 11 10 9 9 9 9 10 10 10 9 9 7 7 7 6 7 6 6 5 5 4 5 5
nan nan nan nan nan nan nan nan nan nan nan nan nan nan nan nan nan nan nan nan nan nan nan nan 36 29 33 41 37 nan nan nan nan nan nan nan nan 34 33 31 30 28 24 21 18 19 16 15 14 19 13 9 8 10 12 14 16 17 15 14 13 12 13 12 12 10 11 10 12 12 11 10 10 9 9 9 9 8 7 6 7 5 6 6 6 7
nan nan nan nan nan nan nan nan nan nan nan nan nan nan nan nan nan nan nan nan nan nan nan nan 32 nan 40 44 45 nan nan nan nan nan nan nan nan nan 35 33 32 30 28 28 24 23 25 21 14 13 14 12 11 14 14 15 16 16 16 14 13 13 13 14 12 12 11 11 11 13 14 13 12 11 10 10 9 9 8 7 7 7 6 6 9 8
nan nan nan nan nan nan nan nan nan nan nan nan nan nan nan nan nan nan nan nan nan nan nan nan nan nan nan nan nan nan nan nan nan nan nan nan nan nan 39 38 35 33 31 29 30 29 29 27 16 14 14 13 17 20 20 17 18 16 18 16 16 14 13 15 14 15 14 13 13 14 15 15 14 12 11 9 10 10 10 9 8 9 8 10 8 9
nan nan nan nan nan nan nan nan nan nan nan nan nan nan nan nan nan nan nan nan nan nan nan nan nan nan nan nan nan nan nan nan nan nan nan nan nan nan 39 40 38 37 36 33 32 32 33 38 37 28 22 26 24 23 27 31 25 21 21 20 18 15 13 15 17 17 16 15 15 15 16 16 16 15 13 11 11 11 11 11 11 10 10 10 11 9
nan nan nan nan nan nan nan nan nan nan nan nan nan nan nan nan nan nan nan nan nan nan nan 44 42 nan nan nan nan nan nan nan nan nan nan nan nan nan nan nan 41 40 40 38 37 36 38 42 39 37 35 31 30 32 32 27 28 30 24 25 25 20 18 15 19 20 20 18 18 17 17 17 18 17 14 12 13 11 11 12 12 12 11 10 12 11
nan nan nan nan nan nan nan nan nan nan nan nan nan nan nan nan nan nan nan nan nan nan nan nan nan nan nan nan nan nan nan nan nan nan nan nan nan nan nan nan 43 42 43 41 41 40 40 41 41 39 37 38 41 37 28 25 28 30 27 22 20 27 23 19 19 22 22 20 18 18 18 18 18 17 16 14 15 13 13 14 13 13 12 11 11 12
nan nan nan nan nan nan nan nan nan nan nan nan nan nan nan nan nan nan nan nan nan nan nan nan 33 nan nan nan nan nan nan nan nan nan nan nan nan nan nan nan 44 44 44 44 45 44 43 44 44 42 41 40 42 36 29 31 25 25 28 32 32 26 21 18 21 18 23 21 20 19 19 18 18 18 17 16 17 15 15 14 14 15 13 13 11 12
nan nan nan nan nan nan nan nan nan nan nan nan nan nan nan nan nan nan nan nan nan nan nan nan nan nan nan nan nan nan nan nan nan nan nan nan nan nan nan nan 45 44 45 46 48 48 47 44 42 42 42 40 41 34 31 26 26 27 26 26 27 31 34 33 21 23 21 22 22 21 19 19 18 18 18 17 17 17 17 17 15 nan 16 13 13 12
nan nan nan nan nan nan nan nan nan nan nan nan nan nan nan nan nan nan nan nan nan nan nan 43 nan nan nan nan nan nan nan nan nan nan nan nan nan nan nan nan nan 46 47 48 50 49 47 46 46 44 42 40 43 41 37 36 33 32 30 24 25 27 24 29 34 30 25 23 22 22 21 20 19 19 19 20 18 19 19 nan nan nan nan 17 14 14
nan nan nan nan nan nan nan nan nan nan nan nan nan nan nan nan nan nan nan nan 47 nan nan 40 43 nan nan nan nan nan nan nan nan nan nan nan nan nan nan nan nan nan 50 51 55 55 49 46 47 47 45 43 41 41 41 40 39 35 33 37 34 28 26 26 24 23 24 26 25 24 22 22 21 21 21 22 22 20 19 19 nan nan nan 19 16 14
nan nan nan nan nan nan nan nan nan nan nan nan nan nan nan nan nan nan nan nan nan nan 38 38 40 nan nan nan nan nan nan nan nan nan nan nan nan nan nan nan nan nan nan nan nan 56 50 48 48 49 48 45 44 43 41 39 39 37 37 38 37 38 40 37 25 21 22 24 26 27 26 26 24 23 23 22 23 21 19 20 21 22 21 20 18 18
nan nan nan nan nan nan nan nan nan nan nan nan nan nan nan nan nan nan nan nan nan 43 44 40 nan nan nan nan nan nan nan nan nan nan nan nan nan nan nan nan nan nan nan nan nan nan 51 48 48 50 50 49 47 45 41 39 40 39 39 38 38 40 41 37 35 28 26 27 28 28 29 30 27 26 24 24 23 23 22 20 20 21 21 20 19 20
nan nan nan nan nan nan nan nan nan nan nan nan nan nan nan nan nan nan nan nan nan nan 38 41 nan nan nan nan nan nan nan nan nan nan nan nan nan nan nan nan nan nan nan nan nan nan nan nan 49 50 51 50 49 47 43 41 41 41 41 40 40 41 40 40 39 39 34 28 28 28 31 31 29 28 27 26 24 24 24 22 21 22 24 22 22 22
nan nan nan nan nan nan nan nan nan nan nan nan nan nan nan nan nan nan nan nan nan nan nan nan 41 nan nan nan nan nan nan nan nan nan nan nan nan nan nan nan nan nan nan nan nan nan nan nan nan nan nan 50 49 48 45 43 41 40 40 40 41 42 39 34 38 36 30 31 29 28 29 30 29 28 28 27 26 26 25 24 23 22 22 21 21 24
nan nan nan nan nan nan nan nan nan nan nan nan nan nan nan nan nan nan nan nan nan nan nan nan nan nan nan nan nan nan nan nan nan nan nan nan nan nan nan nan nan nan nan nan nan nan nan nan nan nan nan nan nan 48 48 45 43 43 41 40 39 42 38 35 34 35 35 34 34 32 28 27 26 26 28 27 27 27 27 26 24 22 21 20 22 23
nan nan nan nan nan nan nan nan nan nan nan nan nan nan nan nan nan nan nan nan nan nan nan nan nan nan nan nan nan nan nan nan nan nan nan nan nan nan nan nan nan nan nan nan nan nan nan nan nan nan nan nan nan nan nan 49 47 45 43 42 41 42 40 37 35 34 30 28 28 29 32 29 25 24 25 28 28 27 27 27 25 23 22 23 24 24
nan nan nan nan nan nan nan nan nan nan nan nan nan nan nan nan nan nan nan nan nan nan nan nan nan nan nan nan nan nan nan nan nan nan nan nan nan nan nan nan nan nan nan nan nan nan nan nan nan nan nan nan nan nan nan nan nan nan 44 42 43 43 41 39 36 35 36 35 34 32 30 27 23 22 24 25 26 27 26 26 26 25 25 24 25 25
nan nan nan nan nan nan nan nan nan nan nan nan nan nan nan nan nan nan nan nan nan nan nan nan nan nan nan nan nan nan nan nan nan nan nan nan nan nan nan nan nan nan nan nan nan nan nan nan nan nan nan nan nan nan nan nan nan nan nan nan nan 43 41 40 38 37 36 36 37 38 36 33 32 29 25 23 24 24 23 24 26 26 28 27 26 26
nan nan nan nan nan nan nan nan nan nan nan nan nan nan nan nan nan nan nan nan nan nan nan nan nan nan nan nan nan nan nan nan nan nan nan nan nan nan nan nan nan nan nan nan nan nan nan nan nan nan nan nan nan nan nan nan nan nan nan nan nan 42 42 41 40 39 37 35 37 39 38 36 35 33 31 26 22 21 21 22 25 27 30 30 28 27
nan nan nan nan nan nan nan nan nan nan nan nan nan nan nan nan nan nan nan nan nan nan nan nan nan nan nan nan nan nan nan nan nan nan nan nan nan nan nan nan nan nan nan nan nan nan nan nan nan nan nan nan nan nan nan nan nan nan nan nan nan nan nan 43 42 41 39 36 36 36 34 34 33 32 32 30 28 25 25 27 28 29 31 33 32 30
nan nan nan nan nan nan nan nan nan nan nan nan nan nan nan nan nan nan nan nan nan nan nan nan nan nan nan nan nan nan nan nan nan nan nan nan nan nan nan nan nan nan nan nan nan nan nan nan nan nan nan nan nan nan nan nan nan nan nan nan nan nan nan nan nan nan 41 39 38 35 34 33 32 31 30 31 32 39 43 39 38 39 40 39 36 36
nan nan nan nan nan nan nan nan nan nan nan nan nan nan nan nan nan nan nan nan nan nan nan nan nan nan nan nan nan nan nan nan nan nan nan nan nan nan nan nan nan nan nan nan nan nan nan nan nan nan nan nan nan nan nan nan nan nan nan nan nan nan nan nan nan nan nan nan 39 38 37 36 35 34 34 33 34 43 41 34 36 40 42 43 40 37
nan nan nan nan nan nan nan nan nan nan nan nan nan nan nan nan nan nan nan nan nan nan nan nan nan nan nan nan nan nan nan nan nan nan nan nan nan nan nan nan nan nan nan nan nan nan nan nan nan nan nan nan nan nan nan nan nan nan nan nan nan nan nan nan nan nan nan nan nan 41 40 40 40 39 38 38 39 41 46 43 35 32 35 37 37 32
nan nan nan nan nan nan nan nan nan nan nan nan nan nan nan nan nan nan 48 nan nan nan nan nan nan nan nan nan nan nan nan nan nan nan nan nan nan nan nan nan nan nan nan nan nan nan nan nan nan nan nan nan nan nan nan nan nan nan nan nan nan nan nan nan nan nan nan nan nan nan 45 45 44 42 41 42 44 43 46 43 33 30 32 34 31 28
nan nan nan nan nan nan nan nan nan nan nan nan nan nan nan nan nan nan nan nan nan nan nan nan nan nan nan nan nan nan nan nan nan nan nan nan nan nan nan nan nan nan nan nan nan nan nan nan nan nan nan nan nan nan nan nan nan nan nan nan nan nan nan nan nan nan nan nan nan nan nan nan 47 45 44 44 45 44 42 39 36 37 34 29 27 27
nan nan nan nan nan nan nan nan nan nan 35 nan nan nan nan nan nan nan nan nan nan nan nan nan nan nan nan nan nan nan nan nan nan nan nan nan nan nan nan nan nan nan nan nan nan nan nan nan nan nan nan nan nan nan nan nan nan nan nan nan nan nan nan nan nan nan nan nan nan nan nan nan nan nan 48 48 47 46 45 41 38 37 37 34 29 28
nan nan 25 22 27 nan nan 33 nan nan 34 nan nan nan nan nan nan nan nan nan nan nan nan nan nan nan nan nan nan nan nan nan nan nan nan nan nan nan nan nan nan nan nan nan nan nan nan nan nan nan nan nan nan nan nan nan nan nan nan nan nan nan nan nan nan nan nan nan nan nan nan nan nan nan 56 55 53 51 48 45 42 40 38 36 34 32
25 19 25 18 nan nan nan nan 31 32 nan nan nan nan nan 32 31 nan nan nan nan nan nan nan nan nan nan nan nan nan nan nan nan nan nan nan nan nan nan nan nan nan nan nan nan nan nan nan nan nan nan nan nan nan nan nan nan nan nan nan nan nan nan nan nan nan nan nan nan nan nan nan nan nan nan nan 57 55 52 50 47 43 41 40 36 35
nan nan nan nan nan nan nan nan nan 28 32 nan nan nan nan nan 33 nan nan nan nan nan nan nan nan nan nan nan nan nan nan nan nan nan nan nan nan nan nan nan nan nan nan nan nan nan nan nan nan nan nan nan nan nan nan nan nan nan nan nan nan nan nan nan nan nan nan nan nan nan nan nan nan nan nan nan 60 58 56 54 51 48 46 44 42 42
20 nan nan nan nan nan nan nan 30 nan nan nan nan nan nan nan nan nan nan nan nan nan nan nan nan nan nan nan nan nan nan nan nan nan nan nan nan nan nan nan nan nan nan nan nan nan nan nan nan nan nan nan nan nan nan nan nan nan nan nan nan nan nan nan nan nan nan nan nan nan nan nan nan nan nan nan nan nan nan 59 56 52 49 47 48 47
nan nan 25 29 nan nan nan nan nan 27 27 nan nan nan nan nan nan nan nan nan nan nan nan nan nan nan nan nan nan nan nan nan nan nan nan nan nan nan nan nan nan nan nan nan nan nan nan nan nan nan nan nan nan nan nan nan nan nan nan nan nan nan nan nan nan nan nan nan nan nan nan nan nan nan nan nan nan nan nan nan nan nan 56 53 51 48
26 24 26 nan 25 24 25 28 28 25 28 30 nan nan nan nan nan nan nan nan nan nan nan nan nan nan nan nan nan nan nan nan nan nan nan nan nan nan nan nan nan nan nan nan nan nan nan nan nan nan nan nan nan nan nan nan nan nan nan nan nan nan nan nan nan nan nan nan nan nan nan nan nan nan nan nan nan nan nan nan nan nan nan 54 55 55
27 27 27 26 27 26 30 30 35 35 33 nan 35 35 nan nan nan nan nan nan nan nan nan nan nan nan nan nan nan nan nan nan nan nan nan nan nan nan nan nan nan nan nan nan nan nan nan nan nan nan nan nan nan nan nan nan nan nan nan nan nan nan nan nan nan nan nan nan nan nan nan nan nan nan nan nan nan nan nan nan nan nan nan nan nan 48
Wind_Direction
nan nan nan nan nan nan nan nan nan nan nan nan nan nan nan nan nan nan 223 nan 246 220 213 nan 244 251 236 214 230 199 201 193 206 160 224 221 217 214 210 nan nan nan nan nan nan nan nan nan nan nan nan nan nan nan 231 215 202 181 191 204 210 223 248 252 234 234 175 138 117 133 117 121 126 119 113 98 36 111 101 75 91 74 82 86 97 92
nan nan nan nan nan nan nan nan nan nan nan nan nan nan nan nan nan 256 261 nan 274 56 nan nan 244 245 234 210 220 198 181 200 211 199 192 218 224 217 208 213 nan nan nan nan nan nan nan nan nan nan nan 240 nan 226 236 210 211 191 195 207 218 232 257 273 283 266 217 185 152 148 146 140 164 134 111 125 103 0 80 103 73 86 100 86 89 91
nan nan nan nan nan nan nan nan nan nan nan nan nan nan nan nan nan nan nan nan 251 nan nan nan nan nan 240 219 nan 194 194 196 214 218 224 212 223 218 208 215 215 nan nan nan nan nan nan nan nan 223 nan 240 248 248 249 224 219 208 201 210 220 234 260 275 292 264 229 210 180 157 162 155 185 153 131 125 133 135 153 108 98 104 103 85 86 88
nan nan nan nan nan nan nan nan nan nan nan nan nan nan nan nan nan nan nan nan nan 228 nan nan nan 235 236 nan nan nan 191 185 182 221 207 219 217 211 214 218 210 nan nan nan nan nan nan nan nan 217 nan 244 244 242 243 228 233 212 208 222 231 244 251 264 273 248 237 225 205 173 170 174 179 169 166 171 147 145 147 123 112 113 100 85 86 81
nan nan nan nan nan nan nan nan nan nan nan nan nan nan nan nan nan nan nan nan nan 243 nan 237 228 205 nan nan nan nan nan 187 179 198 205 208 202 205 209 205 208 212 210 nan nan nan nan 216 nan 213 223 231 243 240 243 227 228 210 237 242 251 252 259 253 254 245 239 232 217 198 189 183 187 175 165 156 145 135 138 127 112 105 94 92 96 86
nan nan nan nan nan nan nan nan nan nan nan nan nan nan nan nan nan nan nan nan nan nan nan nan nan 206 221 nan nan nan nan 192 189 193 184 206 225 214 210 208 202 210 206 213 nan nan nan 213 211 215 212 229 237 236 237 231 236 232 243 254 262 256 256 249 258 239 237 228 224 218 198 181 173 169 155 151 147 131 120 112 147 117 90 93 90 90
nan nan nan nan nan nan nan nan nan nan nan nan nan nan nan nan nan nan nan nan nan nan nan nan nan 232 nan nan 213 204 197 196 202 206 183 209 188 206 215 203 201 200 224 211 214 nan nan 219 219 214 207 218 232 236 237 231 242 240 251 258 267 264 250 248 251 245 231 231 220 215 192 175 169 170 174 164 172 161 142 167 148 139 116 99 88 81
nan nan nan nan nan nan nan nan nan nan nan nan nan nan nan nan nan nan nan nan nan nan nan nan nan nan nan 219 216 210 206 198 198 204 195 198 187 190 187 197 169 210 217 217 216 nan nan 229 220 213 220 210 224 235 236 229 242 242 251 261 270 251 250 247 254 250 230 231 220 202 175 182 176 186 186 182 178 179 172 189 167 143 141 115 123 119
nan nan nan nan nan nan nan nan nan nan nan nan nan nan nan nan nan nan nan nan nan nan nan nan nan nan nan 225 233 206 206 202 206 194 186 193 190 178 183 177 177 177 212 219 213 220 nan 235 217 216 214 214 nan 232 230 228 234 242 241 254 257 245 248 249 269 259 247 225 217 202 189 194 187 193 196 195 186 192 184 187 189 161 174 129 126 105
nan nan nan nan nan nan nan nan nan nan nan nan nan nan nan nan nan nan nan nan nan nan nan nan nan nan nan 243 225 208 204 199 202 216 192 197 186 190 181 175 179 181 204 204 220 216 221 230 220 220 217 nan nan 227 235 235 232 246 238 247 257 248 238 250 270 269 268 236 215 202 194 208 205 198 199 194 202 194 186 190 198 182 182 127 111 111
nan nan nan nan nan nan nan nan nan nan nan nan nan nan nan nan nan nan nan nan nan nan nan nan nan nan 232 221 226 212 211 207 215 201 211 184 185 182 177 175 165 175 187 216 209 214 224 229 223 228 225 219 nan nan 233 231 238 246 243 250 256 248 238 254 269 280 277 246 221 201 207 216 218 216 210 196 213 195 196 181 186 186 168 143 144 51
nan nan nan nan nan nan nan nan nan nan nan nan nan nan nan nan nan nan nan nan nan nan nan nan nan nan nan nan 243 nan 223 205 204 211 208 233 207 178 172 170 172 187 216 215 202 209 234 229 231 234 234 237 230 nan 234 223 234 242 248 251 262 256 252 254 267 277 270 250 222 207 219 222 218 226 211 204 210 200 198 185 190 195 208 158 226 169
nan nan nan nan nan nan nan nan nan nan nan nan nan nan nan nan nan nan nan nan nan nan nan nan nan nan 231 242 254 nan nan nan 208 204 215 212 219 225 183 189 188 188 188 209 225 192 228 226 235 237 241 242 244 235 244 241 239 239 246 264 272 271 262 254 264 270 267 251 224 209 222 224 221 223 212 206 205 197 184 180 193 228 215 241 244 261
nan nan nan nan nan nan nan nan nan nan nan nan nan nan nan nan nan nan nan nan nan nan nan nan nan 238 240 239 245 242 nan 221 216 215 208 208 219 226 209 198 207 194 197 191 205 193 211 214 222 230 231 230 232 237 242 242 236 235 238 255 267 268 267 257 254 256 257 245 220 217 220 225 228 217 210 207 197 199 188 174 169 197 231 257 290 286
nan nan nan nan nan nan nan nan nan nan nan nan nan nan nan nan nan nan nan nan nan nan nan nan nan 250 nan 239 nan nan 237 nan nan 223 218 209 214 225 225 212 203 212 202 199 202 193 206 204 217 227 231 231 226 232 238 235 233 238 239 248 256 262 269 267 258 248 250 226 219 221 221 227 222 219 211 205 201 197 191 181 177 176 212 233 248 253
nan nan nan nan nan nan nan nan nan nan nan nan nan nan nan nan nan nan nan nan nan nan nan nan 217 nan nan nan nan nan nan nan 227 223 219 217 215 222 231 248 232 220 213 202 196 191 201 204 234 200 221 231 226 232 229 240 237 240 239 249 251 258 266 265 266 253 243 226 216 221 232 231 223 216 213 215 207 198 196 195 190 220 192 224 238 237
nan nan nan nan nan nan nan nan nan nan nan nan nan nan nan nan nan nan nan nan nan nan nan nan nan 243 nan 248 nan nan nan nan nan nan 219 nan nan 226 227 230 256 271 221 206 197 200 198 195 204 219 227 218 226 231 232 235 239 242 246 248 252 255 258 266 268 261 249 236 225 230 233 233 230 220 218 222 228 211 215 209 210 222 234 241 251 263
nan nan nan nan nan nan nan nan nan nan nan nan nan nan nan nan nan nan nan nan nan nan nan nan 257 257 256 248 245 241 nan nan nan nan nan nan nan 227 227 232 228 236 240 230 232 228 208 200 203 202 217 240 217 232 230 238 242 244 245 248 256 256 261 264 262 260 252 244 239 239 237 237 231 223 213 212 231 223 230 233 224 228 244 254 260 252
nan nan nan nan nan nan nan nan nan nan nan nan nan nan nan nan nan nan nan nan nan nan nan nan 265 257 249 246 247 nan nan nan nan nan nan nan nan 226 230 231 229 225 223 246 238 244 228 224 204 210 198 263 255 253 246 231 237 241 237 241 249 255 262 263 253 249 240 244 236 236 240 246 238 225 215 208 215 230 232 244 251 238 250 266 268 267
nan nan nan nan nan nan nan nan nan nan nan nan nan nan nan nan nan nan nan nan nan nan nan nan 255 nan 235 236 238 nan nan nan nan nan nan nan nan nan 229 231 232 231 226 226 241 234 239 243 227 237 221 224 232 243 241 245 240 241 243 244 240 244 250 259 257 250 242 245 239 241 244 244 239 231 222 215 215 223 235 238 251 258 260 262 273 275
nan nan nan nan nan nan nan nan nan nan nan nan nan nan nan nan nan nan nan nan nan nan nan nan nan nan nan nan nan nan nan nan nan nan nan nan nan nan 228 230 230 232 233 231 229 237 240 241 252 267 265 241 240 227 223 242 241 232 238 234 235 237 247 258 256 253 241 238 234 244 250 251 246 244 232 227 224 220 227 236 236 249 248 257 257 273
nan nan nan nan nan nan nan nan nan nan nan nan nan nan nan nan nan nan nan nan nan nan nan nan nan nan nan nan nan nan nan nan nan nan nan nan nan nan 225 227 227 228 230 232 234 234 237 239 234 233 239 237 237 233 229 217 215 236 226 221 228 224 233 251 251 246 245 234 233 238 246 248 249 242 235 233 233 230 229 229 238 239 246 256 261 260
nan nan nan nan nan nan nan nan nan nan nan nan nan nan nan nan nan nan nan nan nan nan nan 230 243 nan nan nan nan nan nan nan nan nan nan nan nan nan nan nan 224 226 228 230 231 234 234 236 238 238 232 231 229 229 226 225 221 217 220 211 216 219 214 229 247 250 246 237 235 239 242 243 245 244 242 236 233 237 237 236 239 243 246 249 259 263
nan nan nan nan nan nan nan nan nan nan nan nan nan nan nan nan nan nan nan nan nan nan nan nan nan nan nan nan nan nan nan nan nan nan nan nan nan nan nan nan 224 226 228 230 231 231 235 234 232 238 241 238 242 242 234 225 221 218 212 217 222 208 206 212 237 250 249 244 240 242 242 241 242 249 245 238 231 236 238 238 241 244 245 250 249 265
nan nan nan nan nan nan nan nan nan nan nan nan nan nan nan nan nan nan nan nan nan nan nan nan 247 nan nan nan nan nan nan nan nan nan nan nan nan nan nan nan 230 229 228 227 229 231 233 232 232 231 229 241 243 242 237 235 227 218 221 221 209 217 204 202 235 235 252 248 247 245 242 242 242 245 247 241 235 237 239 238 242 245 246 248 249 255
nan nan nan nan nan nan nan nan nan nan nan nan nan nan nan nan nan nan nan nan nan nan nan nan nan nan nan nan nan nan nan nan nan nan nan nan nan nan nan nan 232 232 230 227 228 229 230 232 234 233 231 230 246 253 253 249 242 239 236 229 229 205 202 206 208 242 245 249 249 246 248 245 245 245 248 244 238 238 238 239 237 nan 250 247 249 251
nan nan nan nan nan nan nan nan nan nan nan nan nan nan nan nan nan nan nan nan nan nan nan 229 nan nan nan nan nan nan nan nan nan nan nan nan nan nan nan nan nan 232 230 228 229 227 226 229 230 232 231 232 232 233 239 242 241 237 231 235 232 234 216 214 212 206 239 245 246 247 246 250 247 245 246 248 241 236 238 nan nan nan nan 252 248 253
nan nan nan nan nan nan nan nan nan nan nan nan nan nan nan nan nan nan nan nan 211 nan nan 239 248 nan nan nan nan nan nan nan nan nan nan nan nan nan nan nan nan nan 230 229 228 224 222 224 228 230 230 228 228 227 228 231 235 235 232 230 226 228 237 230 224 216 220 239 242 244 248 246 249 247 246 248 247 241 240 243 nan nan nan 246 254 253
nan nan nan nan nan nan nan nan nan nan nan nan nan nan nan nan nan nan nan nan nan nan 227 247 245 nan nan nan nan nan nan nan nan nan nan nan nan nan nan nan nan nan nan nan nan 223 218 220 225 228 228 227 225 224 223 224 228 231 232 225 224 225 223 219 217 223 232 240 239 241 243 243 243 246 249 249 252 253 246 245 249 248 247 246 247 254
nan nan nan nan nan nan nan nan nan nan nan nan nan nan nan nan nan nan nan nan nan 229 241 248 nan nan nan nan nan nan nan nan nan nan nan nan nan nan nan nan nan nan nan nan nan nan 216 217 222 225 227 226 224 224 223 224 223 226 225 227 226 224 223 222 219 217 222 222 234 237 239 240 239 241 247 251 254 256 255 251 252 256 257 255 254 251
nan nan nan nan nan nan nan nan nan nan nan nan nan nan nan nan nan nan nan nan nan nan 236 241 nan nan nan nan nan nan nan nan nan nan nan nan nan nan nan nan nan nan nan nan nan nan nan nan 220 223 226 227 226 226 225 223 222 221 222 224 226 227 225 221 220 216 212 219 231 231 229 232 237 237 239 247 251 255 256 255 253 254 256 259 259 257
nan nan nan nan nan nan nan nan nan nan nan nan nan nan nan nan nan nan nan nan nan nan nan nan 247 nan nan nan nan nan nan nan nan nan nan nan nan nan nan nan nan nan nan nan nan nan nan nan nan nan nan 226 227 228 226 225 222 222 222 222 223 228 230 229 226 216 215 219 218 227 229 229 228 233 237 240 245 248 253 255 254 252 257 263 267 263
nan nan nan nan nan nan nan nan nan nan nan nan nan nan nan nan nan nan nan nan nan nan nan nan nan nan nan nan nan nan nan nan nan nan nan nan nan nan nan nan nan nan nan nan nan nan nan nan nan nan nan nan nan 229 229 228 224 222 221 222 223 229 231 230 231 228 217 218 218 217 223 229 233 234 234 238 242 243 246 250 253 256 260 267 266 266
nan nan nan nan nan nan nan nan nan nan nan nan nan nan nan nan nan nan nan nan nan nan nan nan nan nan nan nan nan nan nan nan nan nan nan nan nan nan nan nan nan nan nan nan nan nan nan nan nan nan nan nan nan nan nan 228 224 224 222 220 223 228 231 232 231 236 230 224 226 225 222 220 223 231 237 236 236 242 245 247 251 253 256 259 263 266
nan nan nan nan nan nan nan nan nan nan nan nan nan nan nan nan nan nan nan nan nan nan nan nan nan nan nan nan nan nan nan nan nan nan nan nan nan nan nan nan nan nan nan nan nan nan nan nan nan nan nan nan nan nan nan nan nan nan 223 221 220 222 227 231 233 230 225 224 222 225 228 226 228 233 238 241 242 241 242 246 250 253 251 255 260 264
nan nan nan nan nan nan nan nan nan nan nan nan nan nan nan nan nan nan nan nan nan nan nan nan nan nan nan nan nan nan nan nan nan nan nan nan nan nan nan nan nan nan nan nan nan nan nan nan nan nan nan nan nan nan nan nan nan nan nan nan nan 221 223 227 230 231 227 223 221 220 224 226 224 225 232 239 244 249 249 246 250 252 251 249 253 258
nan nan nan nan nan nan nan nan nan nan nan nan nan nan nan nan nan nan nan nan nan nan nan nan nan nan nan nan nan nan nan nan nan nan nan nan nan nan nan nan nan nan nan nan nan nan nan nan nan nan nan nan nan nan nan nan nan nan nan nan nan 218 224 226 227 227 228 226 222 220 221 223 221 221 225 229 238 248 249 250 250 250 249 249 247 250
nan nan nan nan nan nan nan nan nan nan nan nan nan nan nan nan nan nan nan nan nan nan nan nan nan nan nan nan nan nan nan nan nan nan nan nan nan nan nan nan nan nan nan nan nan nan nan nan nan nan nan nan nan nan nan nan nan nan nan nan nan nan nan 224 225 225 226 227 225 224 222 221 221 221 221 223 225 229 233 239 241 241 247 245 245 244
nan nan nan nan nan nan nan nan nan nan nan nan nan nan nan nan nan nan nan nan nan nan nan nan nan nan nan nan nan nan nan nan nan nan nan nan nan nan nan nan nan nan nan nan nan nan nan nan nan nan nan nan nan nan nan nan nan nan nan nan nan nan nan nan nan nan 226 225 226 227 227 226 225 222 221 222 223 231 230 228 230 232 232 235 234 237
nan nan nan nan nan nan nan nan nan nan nan nan nan nan nan nan nan nan nan nan nan nan nan nan nan nan nan nan nan nan nan nan nan nan nan nan nan nan nan nan nan nan nan nan nan nan nan nan nan nan nan nan nan nan nan nan nan nan nan nan nan nan nan nan nan nan nan nan 229 229 230 229 227 226 225 225 227 241 246 244 243 243 239 238 239 238
nan nan nan nan nan nan nan nan nan nan nan nan nan nan nan nan nan nan nan nan nan nan nan nan nan nan nan nan nan nan nan nan nan nan nan nan nan nan nan nan nan nan nan nan nan nan nan nan nan nan nan nan nan nan nan nan nan nan nan nan nan nan nan nan nan nan nan nan nan 231 231 231 229 226 225 227 231 239 251 247 242 252 261 262 262 262
nan nan nan nan nan nan nan nan nan nan nan nan nan nan nan nan nan nan 247 nan nan nan nan nan nan nan nan nan nan nan nan nan nan nan nan nan nan nan nan nan nan nan nan nan nan nan nan nan nan nan nan nan nan nan nan nan nan nan nan nan nan nan nan nan nan nan nan nan nan nan 233 234 233 231 231 232 235 240 252 261 264 263 268 269 266 263
nan nan nan nan nan nan nan nan nan nan nan nan nan nan nan nan nan nan nan nan nan nan nan nan nan nan nan nan nan nan nan nan nan nan nan nan nan nan nan nan nan nan nan nan nan nan nan nan nan nan nan nan nan nan nan nan nan nan nan nan nan nan nan nan nan nan nan nan nan nan nan nan 236 238 238 238 239 241 248 257 259 262 263 262 262 257
nan nan nan nan nan nan nan nan nan nan 261 nan nan nan nan nan nan nan nan nan nan nan nan nan nan nan nan nan nan nan nan nan nan nan nan nan nan nan nan nan nan nan nan nan nan nan nan nan nan nan nan nan nan nan nan nan nan nan nan nan nan nan nan nan nan nan nan nan nan nan nan nan nan nan 243 243 244 245 247 252 253 252 254 256 257 255
nan nan 241 243 250 nan nan 243 nan nan 263 nan nan nan nan nan nan nan nan nan nan nan nan nan nan nan nan nan nan nan nan nan nan nan nan nan nan nan nan nan nan nan nan nan nan nan nan nan nan nan nan nan nan nan nan nan nan nan nan nan nan nan nan nan nan nan nan nan nan nan nan nan nan nan 244 245 246 245 247 250 253 253 253 254 255 255
247 238 238 245 nan nan nan nan 253 251 nan nan nan nan nan 260 256 nan nan nan nan nan nan nan nan nan nan nan nan nan nan nan nan nan nan nan nan nan nan nan nan nan nan nan nan nan nan nan nan nan nan nan nan nan nan nan nan nan nan nan nan nan nan nan nan nan nan nan nan nan nan nan nan nan nan nan 246 247 249 249 249 249 250 252 251 253
nan nan nan nan nan nan nan nan nan 264 260 nan nan nan nan nan 256 nan nan nan nan nan nan nan nan nan nan nan nan nan nan nan nan nan nan nan nan nan nan nan nan nan nan nan nan nan nan nan nan nan nan nan nan nan nan nan nan nan nan nan nan nan nan nan nan nan nan nan nan nan nan nan nan nan nan nan 244 246 247 249 250 248 247 247 247 248
267 nan nan nan nan nan nan nan 251 nan nan nan nan nan nan nan nan nan nan nan nan nan nan nan nan nan nan nan nan nan nan nan nan nan nan nan nan nan nan nan nan nan nan nan nan nan nan nan nan nan nan nan nan nan nan nan nan nan nan nan nan nan nan nan nan nan nan nan nan nan nan nan nan nan nan nan nan nan nan 244 246 248 250 249 249 249
nan nan 258 258 nan nan nan nan nan 262 261 nan nan nan nan nan nan nan nan nan nan nan nan nan nan nan nan nan nan nan nan nan nan nan nan nan nan nan nan nan nan nan nan nan nan nan nan nan nan nan nan nan nan nan nan nan nan nan nan nan nan nan nan nan nan nan nan nan nan nan nan nan nan nan nan nan nan nan nan nan nan nan 243 244 249 252
267 262 257 nan 260 261 257 257 265 264 264 268 nan nan nan nan nan nan nan nan nan nan nan nan nan nan nan nan nan nan nan nan nan nan nan nan nan nan nan nan nan nan nan nan nan nan nan nan nan nan nan nan nan nan nan nan nan nan nan nan nan nan nan nan nan nan nan nan nan nan nan nan nan nan nan nan nan nan nan nan nan nan nan 245 246 250
267 262 258 262 260 257 258 255 249 249 249 nan 252 255 nan nan nan nan nan nan nan nan nan nan nan nan nan nan nan nan nan nan nan nan nan nan nan nan nan nan nan nan nan nan nan nan nan nan nan nan nan nan nan nan nan nan nan nan nan nan nan nan nan nan nan nan nan nan nan nan nan nan nan nan nan nan nan nan nan nan nan nan nan nan nan 246